Weather History for Fort Lauderdale, FL

Change the Weather History Date:

Tuesday, November 27, 2012

  Actual Average Record
Temperature  
Mean Temperature 72 °F -  
Max Temperature 80 °F 81 °F 87 °F (1948)
Min Temperature 64 °F 67 °F 36 °F (1949)
Cooling Degree Days 7    
Growing Degree Days 22 (Base 50)    
Moisture  
Dew Point 63 °F    
Average Humidity 73    
Maximum Humidity 93    
Minimum Humidity 56    
Precipitation  
Precipitation 0.00 in - - ()
Sea Level Pressure  
Sea Level Pressure 30.15 in    
Wind  
Wind Speed 4 mph (SE)    
Max Wind Speed 13 mph    
Max Gust Speed -    
Visibility 10 miles    
Events      
Averages and records for this station are not official NWS values.
T = Trace of Precipitation, MM = Missing Value Source: NWS Daily Summary

Daily Weather History Graph

Daily Weather History Graph

Search for Another Location

Airport:

Trip Planner

Search our weather history database for the weather conditions in past years. The results will help you decide how hot, cold, wet, or windy it might be!

Date:

Astronomy

Nov. 27, 2012 Rise Set
Actual Time 6:48 AM EST 5:28 PM EST
Civil Twilight 6:23 AM EST 5:53 PM EST
Nautical Twilight 5:55 AM EST 6:21 PM EST
Astronomical Twilight 5:27 AM EST 6:49 PM EST
Moon 4:57 PM EST (11/27) 5:54 AM EST (11/27)
Length of Visible Light 11h 29m
Length of Day
10h 39m
Waxing Gibbous, 99% of the Moon is Illuminated
Nov 27
Waxing Gibbous
Nov 28
Full
Dec 6
Last Quarter
Dec 13
New
Dec 20
First Quarter

Hourly Weather History & Observations

Time (EST) Temp. Heat Index Dew Point Humidity Pressure Visibility Wind Dir Wind Speed Gust Speed Precip Events Conditions
12:53 AM 66.9 °F - 60.1 °F 79% 30.18 in 10.0 mi Calm Calm - N/A   Clear
1:53 AM 68.0 °F - 61.0 °F 78% 30.17 in 10.0 mi Calm Calm - N/A   Clear
2:53 AM 69.1 °F - 61.0 °F 75% 30.16 in 10.0 mi ESE 4.6 mph - N/A   Clear
3:53 AM 68.0 °F - 60.1 °F 76% 30.15 in 10.0 mi ESE 3.5 mph - N/A   Partly Cloudy
4:53 AM 66.0 °F - 61.0 °F 84% 30.15 in 10.0 mi Calm Calm - N/A   Mostly Cloudy
5:53 AM 64.0 °F - 61.0 °F 90% 30.16 in 10.0 mi Calm Calm - N/A   Scattered Clouds
6:53 AM 64.0 °F - 62.1 °F 93% 30.17 in 10.0 mi Calm Calm - N/A   Mostly Cloudy
7:53 AM 71.1 °F - 63.0 °F 75% 30.18 in 10.0 mi ESE 4.6 mph - N/A   Mostly Cloudy
8:53 AM 75.9 °F - 64.0 °F 67% 30.20 in 10.0 mi ESE 9.2 mph - N/A   Scattered Clouds
9:53 AM 75.9 °F - 63.0 °F 64% 30.21 in 10.0 mi ESE 10.4 mph - N/A   Scattered Clouds
10:53 AM 78.1 °F - 64.0 °F 62% 30.20 in 10.0 mi ESE 10.4 mph - N/A   Scattered Clouds
11:53 AM 79.0 °F - 64.0 °F 60% 30.18 in 10.0 mi ESE 12.7 mph - N/A   Scattered Clouds
12:53 PM 79.0 °F - 63.0 °F 58% 30.15 in 10.0 mi SE 11.5 mph - N/A   Scattered Clouds
1:53 PM 80.1 °F 81.5 °F 63.0 °F 56% 30.12 in 10.0 mi SE 8.1 mph - N/A   Scattered Clouds
2:53 PM 78.8 °F - 62.6 °F 57% 30.11 in 10.0 mi SE 10.4 mph - N/A   Scattered Clouds
3:53 PM 78.1 °F - 64.0 °F 62% 30.11 in 10.0 mi SE 9.2 mph - N/A   Partly Cloudy
4:53 PM 75.9 °F - 64.0 °F 67% 30.11 in 10.0 mi SE 9.2 mph - N/A   Scattered Clouds
5:53 PM 75.0 °F - 64.9 °F 71% 30.12 in 10.0 mi SSE 4.6 mph - N/A   Clear
6:53 PM 73.9 °F - 64.9 °F 73% 30.14 in 10.0 mi SE 3.5 mph - N/A   Scattered Clouds
7:53 PM 73.9 °F - 64.9 °F 73% 30.15 in 10.0 mi Calm Calm - N/A   Clear
8:53 PM 72.0 °F - 64.9 °F 78% 30.16 in 10.0 mi Calm Calm - N/A   Partly Cloudy
9:53 PM 71.1 °F - 64.9 °F 81% 30.15 in 10.0 mi SW 3.5 mph - N/A   Scattered Clouds
10:53 PM 70.0 °F - 64.9 °F 84% 30.14 in 10.0 mi Calm Calm - N/A   Clear
11:53 PM 68.0 °F - 64.0 °F 87% 30.13 in 10.0 mi Calm Calm - N/A   Clear